Weather History for Tucson Davis Monthan, AZ

Change the Weather History Date:

Friday, December 28, 2012

  Actual Average Record
Temperature  
Mean Temperature 41 °F -  
Max Temperature 52 °F 62 °F 78 °F (1980)
Min Temperature 30 °F 38 °F 18 °F (1954)
Degree Days  
Heating Degree Days 24    
Moisture  
Dew Point 28 °F    
Average Humidity 62    
Maximum Humidity 87    
Minimum Humidity 33    
Precipitation  
Precipitation 0.00 in - - ()
Sea Level Pressure  
Sea Level Pressure 30.09 in    
Wind  
Wind Speed 5 mph (SE)    
Max Wind Speed 10 mph    
Max Gust Speed -    
Visibility 10 miles    
Events      
Averages and records for this station are not official NWS values.
T = Trace of Precipitation, MM = Missing Value Source: NWS Daily Summary

Daily Weather History Graph

Daily Weather History Graph

Search for Another Location

Airport:

Trip Planner

Search our weather history database for the weather conditions in past years. The results will help you decide how hot, cold, wet, or windy it might be!

Date:

Astronomy

Dec. 28, 2012 Rise Set
Actual Time 7:23 AM MST 5:27 PM MST
Civil Twilight 6:56 AM MST 5:54 PM MST
Nautical Twilight 6:25 AM MST 6:25 PM MST
Astronomical Twilight 5:56 AM MST 6:54 PM MST
Moon 6:03 PM MST (12/28) 7:23 AM MST (12/28)
Length of Visible Light 10h 57m
Length of Day
10h 03m
Full, 100% of the Moon is Illuminated
Dec 28
Full
Jan 4
Last Quarter
Jan 11
New
Jan 18
First Quarter
Jan 26
Full

Hourly Weather History & Observations

Time (MST) Temp. Windchill Dew Point Humidity Pressure Visibility Wind Dir Wind Speed Gust Speed Precip Events Conditions
12:58 AM 35.6 °F 30.7 °F 30.4 °F 81% 30.04 in 10.0 mi SSE 5.8 mph - N/A   Clear
1:58 AM 34.7 °F 29.6 °F 30.2 °F 84% 30.04 in 10.0 mi SSE 5.8 mph - N/A   Clear
2:58 AM 33.6 °F 28.4 °F 29.5 °F 85% 30.05 in 10.0 mi South 5.8 mph - N/A   Clear
3:58 AM 32.9 °F 27.5 °F 29.3 °F 87% 30.06 in 10.0 mi SSE 5.8 mph - N/A   Clear
4:58 AM 32.9 °F 25.9 °F 28.8 °F 85% 30.06 in 10.0 mi SSE 8.1 mph - N/A   Clear
5:58 AM 31.8 °F 27.3 °F 28.4 °F 87% 30.08 in 10.0 mi SSE 4.6 mph - N/A   Clear
6:58 AM 30.6 °F 25.8 °F 27.1 °F 87% 30.11 in 10.0 mi SE 4.6 mph - N/A   Clear
7:58 AM 32.0 °F 24.8 °F 27.7 °F 84% 30.12 in 10.0 mi South 8.1 mph - N/A   Clear
8:58 AM 37.2 °F 31.9 °F 28.0 °F 69% 30.13 in 10.0 mi SSE 6.9 mph - N/A   Clear
9:58 AM 42.8 °F 41.1 °F 29.1 °F 58% 30.13 in 10.0 mi SE 3.5 mph - N/A   Clear
10:58 AM 47.5 °F - 29.7 °F 50% 30.14 in 10.0 mi ENE 2.3 mph - N/A   Clear
11:58 AM 48.4 °F - 29.1 °F 47% 30.10 in 10.0 mi Variable 4.6 mph - N/A   Clear
12:58 PM 50.2 °F - 26.4 °F 40% 30.07 in 10.0 mi ENE 2.3 mph - N/A   Clear
1:58 PM 51.4 °F - 25.5 °F 37% 30.04 in 10.0 mi NW 2.3 mph - N/A   Clear
2:58 PM 52.7 °F - 24.8 °F 34% 30.05 in 10.0 mi NNW 3.5 mph - N/A   Clear
3:58 PM 52.7 °F - 24.6 °F 34% 30.07 in 10.0 mi Variable 1.2 mph - N/A   Clear
4:58 PM 52.7 °F - 24.4 °F 33% 30.07 in 10.0 mi NNW 5.8 mph - N/A   Clear
5:58 PM 48.4 °F - 27.0 °F 43% 30.08 in 10.0 mi North 10.4 mph - N/A   Clear
6:58 PM 46.0 °F 42.5 °F 28.8 °F 51% 30.10 in 10.0 mi NNW 6.9 mph - N/A   Clear
7:58 PM 43.9 °F - 29.3 °F 57% 30.11 in 10.0 mi NW 1.2 mph - N/A   Clear
8:58 PM 41.5 °F 38.6 °F 29.3 °F 62% 30.11 in 10.0 mi West 4.6 mph - N/A   Clear
9:58 PM 38.3 °F 33.9 °F 29.1 °F 70% 30.11 in 10.0 mi SE 5.8 mph - N/A   Clear
10:58 PM 36.9 °F 30.7 °F 27.5 °F 69% 30.11 in 10.0 mi SSE 8.1 mph - N/A   Clear
11:58 PM 37.0 °F 31.0 °F 22.5 °F 56% 30.10 in 10.0 mi SSE 8.1 mph - N/A   Clear